JST421 YBCG-YSSY

Flight info

Callsign JST421
Flight time 1h 6m
Altitude 34000
Route GOMOL Q16 APAGI H91 IGDAM H652 BOREE
Aircraft A320/M-SDE3FGHIRWY/LB1

Departure

Time 2026-05-06 10:41
Airport Gold Coast Airport (YBCG)

Arrival

Time 2026-05-06 11:47
Airport Sydney Kingsford Smith International Airport (YSSY)
Time Latitude Longitude Altitude Speed Heading
2026-05-06 10:18 -28.16559 153.51072 27 ft 0 kts 60°
2026-05-06 10:33 -28.16566 153.51057 29 ft 4 kts 64°
2026-05-06 10:34 -28.16576 153.51029 29 ft 3 kts 74°
2026-05-06 10:34 -28.16583 153.51006 29 ft 4 kts 44°
2026-05-06 10:34 -28.16604 153.50999 31 ft 4 kts 336°
2026-05-06 10:34 -28.16622 153.51010 29 ft 0 kts 330°
2026-05-06 10:36 -28.16622 153.51009 30 ft 1 kts 330°
2026-05-06 10:36 -28.16602 153.50997 31 ft 6 kts 330°
2026-05-06 10:37 -28.16552 153.50965 27 ft 11 kts 330°
2026-05-06 10:37 -28.16495 153.50892 27 ft 14 kts 270°
2026-05-06 10:37 -28.16449 153.50794 28 ft 16 kts 326°
2026-05-06 10:37 -28.16344 153.50725 31 ft 19 kts 330°
2026-05-06 10:38 -28.16226 153.50649 26 ft 21 kts 331°
2026-05-06 10:38 -28.16090 153.50565 30 ft 23 kts 331°
2026-05-06 10:38 -28.15941 153.50471 30 ft 26 kts 330°
2026-05-06 10:38 -28.15781 153.50367 27 ft 27 kts 330°
2026-05-06 10:39 -28.15622 153.50256 30 ft 16 kts 319°
2026-05-06 10:39 -28.15608 153.50195 26 ft 0 kts 259°
2026-05-06 10:39 -28.15608 153.50194 26 ft 1 kts 259°
2026-05-06 10:39 -28.15613 153.50176 26 ft 5 kts 252°
2026-05-06 10:40 -28.15648 153.50104 27 ft 15 kts 215°
2026-05-06 10:40 -28.15848 153.50194 27 ft 64 kts 150°
2026-05-06 10:40 -28.16465 153.50584 27 ft 135 kts 151°
2026-05-06 10:40 -28.17435 153.51193 229 ft 174 kts 152°
2026-05-06 10:41 -28.18504 153.51903 980 ft 178 kts 150°
2026-05-06 10:41 -28.19573 153.52589 1930 ft 176 kts 153°
2026-05-06 10:41 -28.20718 153.53157 2425 ft 190 kts 158°
2026-05-06 10:41 -28.22030 153.53713 2686 ft 211 kts 159°
2026-05-06 10:42 -28.23476 153.54302 3019 ft 233 kts 160°
2026-05-06 10:42 -28.25123 153.54773 3491 ft 254 kts 180°
2026-05-06 10:42 -28.26810 153.54143 4283 ft 264 kts 216°
2026-05-06 10:42 -28.28048 153.52582 5186 ft 269 kts 236°
2026-05-06 10:43 -28.28998 153.50743 6116 ft 271 kts 241°
2026-05-06 10:43 -28.29893 153.48840 6994 ft 274 kts 241°
2026-05-06 10:43 -28.30829 153.46939 7846 ft 277 kts 239°
2026-05-06 10:44 -28.32530 153.43816 9252 ft 282 kts 236°
2026-05-06 10:44 -28.33628 153.41954 10075 ft 285 kts 235°
2026-05-06 10:44 -28.35176 153.39411 10596 ft 310 kts 235°
2026-05-06 10:44 -28.36459 153.37338 10897 ft 328 kts 235°
2026-05-06 10:45 -28.37360 153.35889 11279 ft 334 kts 235°
2026-05-06 10:45 -28.38712 153.33718 11877 ft 339 kts 235°
2026-05-06 10:45 -28.40061 153.31550 12073 ft 341 kts 235°
2026-05-06 10:45 -28.41428 153.29349 12130 ft 341 kts 235°
2026-05-06 10:46 -28.42813 153.27114 12135 ft 341 kts 236°
2026-05-06 10:46 -28.44158 153.24943 12141 ft 340 kts 235°
2026-05-06 10:46 -28.45522 153.22738 12139 ft 340 kts 235°
2026-05-06 10:46 -28.46881 153.20536 12139 ft 340 kts 236°
2026-05-06 10:47 -28.48240 153.18329 12141 ft 340 kts 235°
2026-05-06 10:47 -28.49600 153.16121 12141 ft 340 kts 236°
2026-05-06 10:47 -28.50961 153.13908 12140 ft 340 kts 236°
2026-05-06 10:47 -28.52319 153.11702 12192 ft 343 kts 235°
2026-05-06 10:48 -28.53700 153.09464 12879 ft 345 kts 236°
2026-05-06 10:48 -28.55072 153.07244 13584 ft 349 kts 236°
2026-05-06 10:48 -28.56481 153.04958 14210 ft 353 kts 236°
2026-05-06 10:48 -28.57897 153.02656 14798 ft 357 kts 237°
2026-05-06 10:49 -28.59326 153.00332 15419 ft 359 kts 238°
2026-05-06 10:49 -28.60763 152.97992 16038 ft 361 kts 238°
2026-05-06 10:49 -28.62208 152.95641 16646 ft 364 kts 238°
2026-05-06 10:49 -28.63667 152.93263 17253 ft 367 kts 239°
2026-05-06 10:50 -28.65137 152.90870 17868 ft 369 kts 239°
2026-05-06 10:50 -28.66615 152.88463 18466 ft 372 kts 240°
2026-05-06 10:50 -28.68105 152.86034 19006 ft 375 kts 240°
2026-05-06 10:50 -28.69599 152.83593 19569 ft 377 kts 240°
2026-05-06 10:51 -28.71084 152.81167 20128 ft 378 kts 240°
2026-05-06 10:51 -28.72597 152.78694 20691 ft 380 kts 240°
2026-05-06 10:51 -28.74117 152.76208 21220 ft 382 kts 240°
2026-05-06 10:51 -28.75641 152.73713 21734 ft 385 kts 240°
2026-05-06 10:52 -28.77175 152.71198 22248 ft 387 kts 240°
2026-05-06 10:52 -28.78719 152.68665 22756 ft 389 kts 240°
2026-05-06 10:52 -28.80250 152.66148 23237 ft 392 kts 240°
2026-05-06 10:52 -28.81812 152.63580 23723 ft 395 kts 240°
2026-05-06 10:53 -28.83415 152.61015 24133 ft 399 kts 237°
2026-05-06 10:53 -28.85365 152.58710 24528 ft 410 kts 226°
2026-05-06 10:53 -28.87713 152.56856 24941 ft 421 kts 215°
2026-05-06 10:53 -28.90328 152.55306 25345 ft 424 kts 214°
2026-05-06 10:54 -28.92961 152.53748 25746 ft 426 kts 215°
2026-05-06 10:54 -28.95599 152.52179 26143 ft 428 kts 215°
2026-05-06 10:54 -28.98253 152.50596 26529 ft 430 kts 216°
2026-05-06 10:54 -29.00916 152.49005 26885 ft 433 kts 216°
2026-05-06 10:55 -29.03587 152.47406 27270 ft 435 kts 216°
2026-05-06 10:55 -29.06239 152.45821 27625 ft 437 kts 216°
2026-05-06 10:55 -29.08947 152.44205 28012 ft 439 kts 216°
2026-05-06 10:55 -29.11663 152.42587 28387 ft 441 kts 217°
2026-05-06 10:56 -29.14402 152.40953 28764 ft 444 kts 217°
2026-05-06 10:56 -29.17158 152.39309 29152 ft 446 kts 217°
2026-05-06 10:56 -29.19881 152.37680 29530 ft 448 kts 217°
2026-05-06 10:56 -29.22655 152.36015 29919 ft 450 kts 217°
2026-05-06 10:57 -29.25435 152.34347 30286 ft 453 kts 217°
2026-05-06 10:57 -29.28237 152.32668 30599 ft 455 kts 217°
2026-05-06 10:57 -29.31046 152.30985 30971 ft 455 kts 217°
2026-05-06 10:57 -29.33852 152.29308 31399 ft 455 kts 217°
2026-05-06 10:58 -29.36655 152.27632 31855 ft 453 kts 217°
2026-05-06 10:58 -29.39416 152.25980 32299 ft 453 kts 218°
2026-05-06 10:58 -29.42210 152.24305 32742 ft 452 kts 218°
2026-05-06 10:58 -29.44996 152.22630 33175 ft 451 kts 218°
2026-05-06 10:59 -29.47772 152.20960 33579 ft 450 kts 219°
2026-05-06 10:59 -29.50542 152.19294 34009 ft 449 kts 219°
2026-05-06 10:59 -29.53307 152.17631 34135 ft 447 kts 219°
2026-05-06 11:00 -29.58771 152.14338 34151 ft 448 kts 219°
2026-05-06 11:00 -29.64404 152.10899 34151 ft 463 kts 219°
2026-05-06 11:01 -29.70173 152.07599 34154 ft 475 kts 211°
2026-05-06 11:01 -29.73420 152.06591 34161 ft 487 kts 203°
2026-05-06 11:01 -29.76728 152.05758 34147 ft 486 kts 203°
2026-05-06 11:02 -29.83328 152.04058 34148 ft 483 kts 204°
2026-05-06 11:02 -29.89831 152.02351 34159 ft 481 kts 204°
2026-05-06 11:03 -29.96368 152.00632 34163 ft 481 kts 204°
2026-05-06 11:03 -30.02868 151.98930 34170 ft 480 kts 204°
2026-05-06 11:04 -30.09409 151.97213 34165 ft 480 kts 204°
2026-05-06 11:04 -30.15931 151.95494 34161 ft 480 kts 204°
2026-05-06 11:05 -30.22458 151.93781 34162 ft 480 kts 204°
2026-05-06 11:05 -30.28935 151.92071 34160 ft 480 kts 203°
2026-05-06 11:06 -30.35235 151.89827 34149 ft 466 kts 213°
2026-05-06 11:06 -30.41267 151.87014 34140 ft 467 kts 212°
2026-05-06 11:07 -30.47271 151.84210 34137 ft 468 kts 212°
2026-05-06 11:07 -30.53331 151.81391 34138 ft 468 kts 212°
2026-05-06 11:08 -30.59385 151.78581 34136 ft 469 kts 212°
2026-05-06 11:08 -30.65459 151.75743 34134 ft 469 kts 212°
2026-05-06 11:09 -30.71519 151.72908 34136 ft 470 kts 212°
2026-05-06 11:09 -30.77595 151.70062 34140 ft 470 kts 212°
2026-05-06 11:10 -30.83635 151.67233 34138 ft 471 kts 212°
2026-05-06 11:10 -30.89719 151.64375 34142 ft 471 kts 212°
2026-05-06 11:11 -30.95802 151.61512 34137 ft 471 kts 212°
2026-05-06 11:11 -31.01894 151.58642 34143 ft 472 kts 211°
2026-05-06 11:12 -31.07986 151.55770 34142 ft 472 kts 211°
2026-05-06 11:12 -31.14086 151.52888 34136 ft 473 kts 211°
2026-05-06 11:13 -31.20193 151.49999 34131 ft 473 kts 211°
2026-05-06 11:13 -31.26304 151.47100 34136 ft 474 kts 211°
2026-05-06 11:14 -31.32415 151.44199 34135 ft 474 kts 211°
2026-05-06 11:14 -31.38501 151.41309 34134 ft 475 kts 211°
2026-05-06 11:15 -31.44938 151.39125 34134 ft 490 kts 198°
2026-05-06 11:15 -31.51679 151.37820 34131 ft 491 kts 198°
2026-05-06 11:16 -31.58451 151.36551 34133 ft 492 kts 197°
2026-05-06 11:16 -31.65169 151.35276 34129 ft 492 kts 197°
2026-05-06 11:17 -31.71945 151.33979 34130 ft 492 kts 197°
2026-05-06 11:17 -31.78722 151.32681 34139 ft 493 kts 197°
2026-05-06 11:18 -31.85494 151.31385 34132 ft 493 kts 197°
2026-05-06 11:18 -31.92266 151.30076 34136 ft 493 kts 197°
2026-05-06 11:19 -31.99043 151.28760 34139 ft 493 kts 197°
2026-05-06 11:19 -32.05830 151.27454 34122 ft 493 kts 197°
2026-05-06 11:20 -32.12581 151.26155 34123 ft 494 kts 197°
2026-05-06 11:20 -32.19374 151.24843 33600 ft 494 kts 197°
2026-05-06 11:20 -32.22774 151.24184 33024 ft 494 kts 197°
2026-05-06 11:21 -32.26167 151.23525 32451 ft 494 kts 197°
2026-05-06 11:21 -32.29564 151.22862 31872 ft 495 kts 197°
2026-05-06 11:21 -32.32966 151.22201 31284 ft 495 kts 197°
2026-05-06 11:21 -32.36369 151.21541 30700 ft 495 kts 196°
2026-05-06 11:22 -32.39782 151.20875 30094 ft 496 kts 196°
2026-05-06 11:22 -32.43196 151.20211 29470 ft 496 kts 196°
2026-05-06 11:22 -32.46564 151.19560 28902 ft 497 kts 195°
2026-05-06 11:22 -32.49981 151.18900 28325 ft 497 kts 195°
2026-05-06 11:23 -32.53398 151.18235 27760 ft 498 kts 195°
2026-05-06 11:23 -32.56823 151.17569 27200 ft 498 kts 195°
2026-05-06 11:23 -32.60237 151.16902 26661 ft 497 kts 194°
2026-05-06 11:23 -32.63633 151.16241 25957 ft 490 kts 194°
2026-05-06 11:24 -32.66982 151.15586 25379 ft 484 kts 194°
2026-05-06 11:24 -32.70342 151.14928 25083 ft 492 kts 194°
2026-05-06 11:24 -32.73742 151.14260 24536 ft 491 kts 194°
2026-05-06 11:24 -32.75962 151.13825 24162 ft 488 kts 194°
2026-05-06 11:25 -32.80386 151.12958 23397 ft 483 kts 194°
2026-05-06 11:25 -32.83687 151.12309 22820 ft 479 kts 194°
2026-05-06 11:25 -32.86963 151.11665 22269 ft 475 kts 193°
2026-05-06 11:25 -32.89167 151.11231 21870 ft 472 kts 193°
2026-05-06 11:26 -32.92399 151.10596 21299 ft 468 kts 193°
2026-05-06 11:26 -32.95563 151.09974 20723 ft 464 kts 193°
2026-05-06 11:26 -32.98735 151.09347 20151 ft 461 kts 193°
2026-05-06 11:26 -33.01884 151.08724 19567 ft 457 kts 192°
2026-05-06 11:27 -33.05047 151.08098 18982 ft 453 kts 192°
2026-05-06 11:27 -33.08110 151.07493 18419 ft 449 kts 192°
2026-05-06 11:27 -33.11190 151.06886 17800 ft 446 kts 192°
2026-05-06 11:27 -33.14236 151.06285 17235 ft 442 kts 192°
2026-05-06 11:28 -33.17268 151.05687 16677 ft 438 kts 192°
2026-05-06 11:28 -33.20264 151.05093 16106 ft 434 kts 192°
2026-05-06 11:28 -33.23254 151.04611 15572 ft 433 kts 185°
2026-05-06 11:28 -33.26222 151.04877 15036 ft 433 kts 173°
2026-05-06 11:29 -33.29193 151.05438 14486 ft 430 kts 173°
2026-05-06 11:29 -33.32135 151.05999 13944 ft 426 kts 173°
2026-05-06 11:29 -33.35055 151.06562 13369 ft 423 kts 173°
2026-05-06 11:29 -33.37954 151.07120 12856 ft 420 kts 173°
2026-05-06 11:30 -33.40832 151.07674 12344 ft 417 kts 173°
2026-05-06 11:30 -33.43698 151.08222 11832 ft 414 kts 173°
2026-05-06 11:30 -33.46532 151.08766 11308 ft 411 kts 173°
2026-05-06 11:30 -33.49357 151.09311 10747 ft 408 kts 173°
2026-05-06 11:31 -33.52111 151.09845 10257 ft 405 kts 173°
2026-05-06 11:31 -33.54871 151.10384 10051 ft 394 kts 173°
2026-05-06 11:31 -33.57507 151.10897 9920 ft 374 kts 173°
2026-05-06 11:31 -33.60021 151.11385 9788 ft 357 kts 173°
2026-05-06 11:32 -33.62426 151.11853 9639 ft 342 kts 173°
2026-05-06 11:32 -33.64739 151.12303 9522 ft 330 kts 173°
2026-05-06 11:32 -33.66967 151.12743 9399 ft 318 kts 173°
2026-05-06 11:32 -33.69095 151.13162 9256 ft 308 kts 173°
2026-05-06 11:33 -33.71182 151.13574 9036 ft 302 kts 173°
2026-05-06 11:33 -33.73242 151.13976 8618 ft 297 kts 173°
2026-05-06 11:33 -33.75278 151.14370 8004 ft 295 kts 174°
2026-05-06 11:33 -33.77295 151.14759 7490 ft 290 kts 173°
2026-05-06 11:34 -33.79273 151.15144 7414 ft 288 kts 173°
2026-05-06 11:34 -33.81258 151.15308 7276 ft 284 kts 187°
2026-05-06 11:34 -33.83186 151.14906 7119 ft 280 kts 197°
2026-05-06 11:34 -33.85078 151.14349 6961 ft 280 kts 197°
2026-05-06 11:35 -33.86976 151.13799 6789 ft 279 kts 197°
2026-05-06 11:35 -33.88840 151.13263 6628 ft 278 kts 197°
2026-05-06 11:35 -33.90721 151.12724 6459 ft 278 kts 197°
2026-05-06 11:35 -33.92598 151.12185 6291 ft 277 kts 196°
2026-05-06 11:36 -33.94487 151.11642 6123 ft 276 kts 196°
2026-05-06 11:36 -33.96356 151.11105 5990 ft 276 kts 197°
2026-05-06 11:36 -33.98226 151.10567 5768 ft 275 kts 197°
2026-05-06 11:36 -34.00086 151.10029 5579 ft 274 kts 197°
2026-05-06 11:37 -34.01941 151.09491 5392 ft 274 kts 197°
2026-05-06 11:37 -34.03793 151.08955 5201 ft 273 kts 196°
2026-05-06 11:37 -34.05642 151.08421 5020 ft 273 kts 197°
2026-05-06 11:37 -34.07483 151.07983 4837 ft 274 kts 187°
2026-05-06 11:38 -34.09396 151.08086 4646 ft 277 kts 172°
2026-05-06 11:38 -34.11283 151.08574 4460 ft 277 kts 170°
2026-05-06 11:38 -34.13168 151.09067 4268 ft 276 kts 170°
2026-05-06 11:38 -34.15047 151.09557 4080 ft 276 kts 170°
2026-05-06 11:39 -34.16929 151.10047 3896 ft 276 kts 169°
2026-05-06 11:39 -34.18811 151.10539 3708 ft 274 kts 168°
2026-05-06 11:39 -34.20529 151.11465 3503 ft 270 kts 141°
2026-05-06 11:39 -34.21654 151.13185 3312 ft 263 kts 111°
2026-05-06 11:40 -34.21947 151.15294 3116 ft 251 kts 81°
2026-05-06 11:40 -34.21649 151.17328 2999 ft 240 kts 74°
2026-05-06 11:40 -34.21282 151.19233 2993 ft 225 kts 73°
2026-05-06 11:40 -34.20875 151.21035 2993 ft 219 kts 60°
2026-05-06 11:41 -34.19917 151.22366 2996 ft 209 kts 25°
2026-05-06 11:41 -34.18585 151.23037 2988 ft 208 kts 14°
2026-05-06 11:41 -34.17199 151.23501 2986 ft 205 kts
2026-05-06 11:41 -34.15860 151.23202 2985 ft 192 kts 339°
2026-05-06 11:42 -34.14587 151.22785 2985 ft 188 kts 345°
2026-05-06 11:42 -34.13331 151.22460 2982 ft 186 kts 346°
2026-05-06 11:42 -34.12064 151.22132 2983 ft 186 kts 346°
2026-05-06 11:42 -34.10818 151.21809 2862 ft 178 kts 346°
2026-05-06 11:43 -34.09637 151.21502 2653 ft 170 kts 346°
2026-05-06 11:43 -34.08521 151.21211 2431 ft 158 kts 346°
2026-05-06 11:43 -34.07486 151.20942 2230 ft 147 kts 346°
2026-05-06 11:44 -34.05580 151.20445 1888 ft 135 kts 347°
2026-05-06 11:44 -34.04665 151.20207 1704 ft 134 kts 347°
2026-05-06 11:44 -34.03754 151.19970 1511 ft 133 kts 347°
2026-05-06 11:44 -34.02849 151.19735 1332 ft 132 kts 347°
2026-05-06 11:45 -34.01947 151.19500 1148 ft 133 kts 348°
2026-05-06 11:45 -34.01048 151.19266 979 ft 131 kts 348°
2026-05-06 11:45 -34.00161 151.19036 804 ft 132 kts 347°
2026-05-06 11:45 -33.99251 151.18799 627 ft 132 kts 348°
2026-05-06 11:46 -33.98353 151.18572 468 ft 135 kts 346°
2026-05-06 11:46 -33.97447 151.18330 287 ft 133 kts 346°
2026-05-06 11:46 -33.96541 151.18094 116 ft 130 kts 348°
2026-05-06 11:46 -33.95685 151.17874 30 ft 116 kts 347°
2026-05-06 11:47 -33.95061 151.17711 27 ft 69 kts 348°
2026-05-06 11:47 -33.94707 151.17647 29 ft 39 kts 358°
2026-05-06 11:47 -33.94535 151.17679 30 ft 20 kts 12°
2026-05-06 11:47 -33.94397 151.17727 30 ft 21 kts 17°
2026-05-06 11:48 -33.94250 151.17711 29 ft 23 kts 344°
2026-05-06 11:48 -33.94087 151.17662 28 ft 25 kts 347°
2026-05-06 11:48 -33.93907 151.17613 29 ft 27 kts 347°
2026-05-06 11:48 -33.93722 151.17567 29 ft 21 kts 350°
2026-05-06 11:49 -33.93642 151.17597 30 ft 11 kts 34°
2026-05-06 11:49 -33.93605 151.17640 30 ft 7 kts 72°
2026-05-06 11:49 -33.93598 151.17680 30 ft 3 kts 79°
2026-05-06 11:49 -33.93595 151.17697 30 ft 1 kts 77°
2026-05-06 11:50 -33.93594 151.17701 30 ft 0 kts 77°